Regional Weather Roundup
Issued by NWS

Home | Current Version | Previous Version | Text Only | Print | Product List | Glossary On
Versions: 1 2 3 4 5 6 7 8 9 10 11 12 13 14 15 16 17 18 19 20 21 22 23 24 25 26 27
000
ASUS45 KCYS 270410
RWRWY

WYOMING REGIONAL WEATHER ROUNDUP
NATIONAL WEATHER SERVICE CHEYENNE WY
1000 PM MDT SUN MAR 26 2017

NOTE:  "FAIR" INDICATES FEW OR NO CLOUDS BELOW 12,000 FEET
WITH NO SIGNIFICANT WEATHER AND/OR OBSTRUCTIONS TO VISIBILITY.

WYZ001-270500-
YELLOWSTONE NATIONAL PARK

CITY           SKY/WX    TMP DP  RH WIND       PRES   REMARKS
LK YELLOWSTONE   N/A     29  23  78 CALM      29.96S
W YELLOWSTONE  NOT AVBL

$$
WYZ002>013-054>058-071-098>099-270500-
NORTHERN WYOMING

CITY           SKY/WX    TMP DP  RH WIND       PRES   REMARKS
JACKSON        CLOUDY    36  30  80 S13       29.97S WCI  27
CODY           FAIR      46  22  38 VRB5      29.88R
GREYBULL       CLOUDY    47  33  58 S5        29.84R
WORLAND        FAIR      47  36  65 SE10      29.84R
SHERIDAN       FAIR      42  33  70 S5        29.87S
BUFFALO        FAIR      43  31  62 W6        29.90S
GILLETTE       FAIR      39  34  82 S7        29.90S WCI  34
HULETT         FAIR      36  32  87 S5        29.93R WCI  32
NEWCASTLE      FAIR      34  32  93 S10       29.94S WCI  26

$$
WYZ014>020-022>026-101>103-270500-
CENTRAL WYOMING

CITY           SKY/WX    TMP DP  RH WIND       PRES   REMARKS
BIG PINEY      CLOUDY    32  25  75 CALM      29.98S
PINEDALE       MOCLDY    32  23  69 NW5       29.98S WCI  27
DUBOIS         MOCLDY    32  19  59 W10       29.93S WCI  24
LANDER         FAIR      45  20  36 N3        29.88R
RIVERTON       FAIR      45  21  38 W10       29.88R
CASPER         FAIR      38  34  85 W7        29.91R WCI  33
DOUGLAS        MOCLDY    37  32  82 SE5       29.93S WCI  33

$$
WYZ021-027>030-104>119-270500-
SOUTHERN WYOMING

CITY           SKY/WX    TMP DP  RH WIND       PRES   REMARKS
EVANSTON       CLOUDY    36  23  59 SW6       29.99F WCI  31
KEMMERER         N/A     34  27  75 SW7       29.99F WCI  28
FORT BRIDGER   FAIR      35  26  67 W9        30.03R WCI  28
ROCK SPRINGS   MOCLDY    39  24  55 W9        29.99R WCI  33
DIXON            N/A     36  27  70 NE6       30.01R WCI  31
RAWLINS        FAIR      39  21  48 SW7       29.96R WCI  34
SARATOGA       FAIR      34  27  75 SE6       29.98S WCI  29
LARAMIE        FAIR      32  27  81 S7        29.96S WCI  26
CHEYENNE       FAIR      36  32  85 S6        29.98R WCI  31
TORRINGTON     FAIR      36  32  85 CALM      29.94S
PINE BLUFFS    FAIR      30  28  93 SW3       29.98S

$$




USA.gov is the U.S. government's official web portal to all federal, state and local government web resources and services.